TimeMST,TemperatureF,Dew PointF,Humidity,Sea Level PressureIn,VisibilityMPH,Wind Direction,Wind SpeedMPH,Gust SpeedMPH,PrecipitationIn,Events,Conditions,WindDirDegrees,DateUTC
12:22 AM,28.0,26.1,92,29.74,1.0,Calm,Calm,-,0.01,Snow,Light Snow,0,2012-12-27 07:22:00
12:53 AM,28.9,27.0,92,29.77,1.8,NW,3.5,-,0.02,Snow,Light Snow,320,2012-12-27 07:53:00
1:11 AM,28.9,27.0,92,29.74,2.0,North,4.6,-,0.00,Snow,Light Snow,350,2012-12-27 08:11:00
1:53 AM,28.0,26.1,92,29.79,1.8,NNW,5.8,-,0.01,Snow,Light Snow,340,2012-12-27 08:53:00
2:53 AM,28.0,27.0,96,29.81,1.0,NNW,5.8,-,0.03,Snow,Light Snow,340,2012-12-27 09:53:00
3:53 AM,28.0,26.1,92,29.82,2.0,NW,6.9,-,0.02,Snow,Light Snow,320,2012-12-27 10:53:00
4:53 AM,27.0,25.0,92,29.82,1.0,North,11.5,-,0.03,Snow,Light Snow,350,2012-12-27 11:53:00
5:53 AM,26.1,24.1,92,29.85,1.0,NNW,11.5,-,0.03,Snow,Light Snow,340,2012-12-27 12:53:00
6:41 AM,26.1,24.1,92,29.82,1.8,North,9.2,-,0.01,Snow,Light Snow,360,2012-12-27 13:41:00
6:53 AM,26.1,24.1,92,29.88,2.0,North,8.1,-,0.02,Snow,Light Snow,350,2012-12-27 13:53:00
7:53 AM,26.1,23.0,88,29.90,2.0,NNW,9.2,-,0.01,Snow,Light Snow,330,2012-12-27 14:53:00
8:06 AM,26.1,23.0,88,29.85,2.0,NW,6.9,-,0.00,Snow,Light Snow,310,2012-12-27 15:06:00
8:21 AM,26.1,23.0,88,29.85,2.0,NW,9.2,-,0.01,Snow,Light Snow,320,2012-12-27 15:21:00
8:53 AM,26.1,23.0,88,29.93,2.0,NNW,11.5,-,0.01,Snow,Light Snow,330,2012-12-27 15:53:00
9:15 AM,26.1,23.0,88,29.87,2.0,NNW,11.5,-,0.00,Snow,Light Snow,330,2012-12-27 16:15:00
9:27 AM,26.1,23.0,88,29.88,7.0,NNW,9.2,-,0.00,Snow,Light Snow,340,2012-12-27 16:27:00
9:53 AM,26.1,21.9,84,29.94,7.0,NNW,8.1,-,0.00,,Mostly Cloudy,340,2012-12-27 16:53:00
10:53 AM,27.0,23.0,85,29.96,7.0,North,6.9,-,0.00,,Overcast,350,2012-12-27 17:53:00
11:53 AM,27.0,21.9,81,29.96,8.0,North,6.9,-,0.00,Snow,Light Snow,350,2012-12-27 18:53:00
12:22 PM,27.0,21.9,81,29.90,10.0,North,6.9,-,0.00,,Mostly Cloudy,10,2012-12-27 19:22:00
12:43 PM,28.0,21.9,78,29.90,10.0,North,8.1,-,0.00,,Mostly Cloudy,350,2012-12-27 19:43:00
12:53 PM,28.0,23.0,81,29.94,10.0,North,8.1,-,0.00,,Mostly Cloudy,360,2012-12-27 19:53:00
1:53 PM,28.4,21.2,74,29.89,10.0,North,6.9,-,N/A,,Mostly Cloudy,350,2012-12-27 20:53:00
2:53 PM,28.0,21.9,78,29.97,10.0,NNW,5.8,-,N/A,,Mostly Cloudy,340,2012-12-27 21:53:00
3:53 PM,28.0,21.0,75,29.99,10.0,NNW,4.6,-,N/A,,Overcast,340,2012-12-27 22:53:00
4:53 PM,28.0,21.9,78,30.01,10.0,North,4.6,-,N/A,,Overcast,360,2012-12-27 23:53:00
5:53 PM,28.0,21.9,78,30.05,9.0,North,4.6,-,0.00,Snow,Light Snow,360,2012-12-28 00:53:00
6:48 PM,26.6,21.2,80,30.00,9.0,NNW,4.6,-,0.00,,Overcast,340,2012-12-28 01:48:00
6:53 PM,27.0,21.9,81,30.06,9.0,NNW,3.5,-,0.00,,Overcast,340,2012-12-28 01:53:00
7:53 PM,28.4,21.2,74,30.02,9.0,NW,3.5,-,N/A,Snow,Light Snow,320,2012-12-28 02:53:00
8:53 PM,28.0,24.1,85,30.09,6.0,Calm,Calm,-,0.00,Snow,Light Snow,0,2012-12-28 03:53:00
9:53 PM,28.0,24.1,85,30.11,7.0,North,3.5,-,0.00,Snow,Light Snow,10,2012-12-28 04:53:00
10:53 PM,28.0,24.1,85,30.12,6.0,Calm,Calm,-,0.00,Snow,Light Snow,0,2012-12-28 05:53:00
11:53 PM,28.0,24.1,85,30.13,6.0,WNW,3.5,-,0.00,Snow,Light Snow,290,2012-12-28 06:53:00